sat.trackr.live / text

‹ back to catalog

STARLINK-32249

NORAD 60444 · 2024-144V

PAYLOAD ACTIVE UNKNOWN

§ Identity

Operator
Country
US
Launch date
2024-08-12
Launch site
AFETR
Launch vehicle
Mass (kg)
RCS (m²)

Purposes: comms

External: N2YO · Heavens-Above · Gunter

§ Orbital elements

Epoch: 2026-05-25T04:28:58.285344Z

Period
93.85 min
Inclination
53.1623°
Eccentricity
0.0000975
Mean motion
15.34389598 rev/d
Perigee alt
462.1 km
Apogee alt
463.4 km
Semi-major
6,840.9 km
B*
3.7698e-5
RAAN
220.9253°
Arg perigee
97.9397°
Mean anomaly
262.1716°
Rev number
10,107

§ Raw data

STARLINK-322491 60444U 24144V   26145.18678571  .00000897  00000+0  37698-4 0  99942 60444  53.1623 220.9253 0000975  97.9397 262.1716 15.34389598101077

JSON: /api/v1/satellites/60444 · /tle

For live sub-satellite position, see the globe view (requires WebGL).

§ Visibility from observer

Set your observer location to see the next 7 days of passes ≥ 10°. The values pass through the URL so the page stays shareable.

No JS? Fill the form by hand. The geolocation button needs JavaScript.